Temp
76 77 79 79 79 79 79 79 78 78 78 78 78 78 78 77 78 78 77 77 77 78 78 78 78 78 78 78 78 78 78 79 79 79 79 79 80 80 77 79 81 81 79
78 77 78 78 79 79 79 79 78 78 77 78 78 78 77 77 77 77 77 77 77 77 78 78 78 78 78 78 78 78 78 78 78 79 79 79 79 80 79 80 80 79 79
76 76 78 78 79 79 78 78 78 77 77 77 78 77 77 77 77 77 77 77 77 77 77 77 78 78 78 78 78 78 78 78 78 78 79 73 74 80 81 80 80 79 79
77 75 76 78 78 79 78 78 77 77 77 77 77 78 78 77 77 77 77 77 77 77 78 78 78 78 78 78 78 78 78 78 78 79 73 74 75 82 82 80 80 79 78
77 75 75 78 78 79 78 78 77 77 77 77 77 78 77 77 77 77 77 77 77 78 78 78 78 78 78 78 77 77 77 77 78 78 73 71 69 81 82 80 80 79 78
78 78 78 78 78 78 78 78 77 77 77 77 77 77 77 77 77 76 77 77 77 78 78 78 78 78 78 78 77 77 77 77 77 73 72 73 73 80 80 79 80 79 78
79 80 77 78 78 78 78 78 77 77 77 77 77 77 77 77 77 77 77 77 77 77 77 78 77 77 76 77 77 77 76 76 75 72 72 72 74 77 79 79 79 78 78
82 81 77 78 77 77 78 77 77 77 77 77 77 77 77 77 76 77 77 77 77 77 77 77 77 76 76 76 75 76 76 77 76 72 73 72 75 77 78 78 77 78 78
86 81 77 77 77 78 77 77 77 76 76 76 76 76 76 76 76 76 76 76 76 76 76 76 75 75 75 75 75 75 76 76 71 69 74 73 77 78 79 78 78 77 77
87 80 77 76 77 76 75 77 77 76 76 76 76 76 76 76 76 76 75 75 76 76 75 75 75 75 75 75 75 75 75 76 71 70 69 71 77 78 78 78 78 77 77
86 80 77 75 75 75 75 76 76 77 76 76 75 76 74 69 70 73 74 75 75 75 75 75 74 74 74 74 74 75 75 68 69 69 70 75 77 79 79 78 77 77 77
84 80 79 76 75 75 79 75 74 74 74 73 73 71 70 68 67 74 74 76 76 76 75 75 75 74 74 67 68 74 71 68 68 69 70 76 77 79 78 78 77 77 76
85 82 80 77 76 76 78 75 73 73 72 71 70 69 69 70 69 70 67 70 68 73 69 71 70 69 68 66 67 69 72 71 69 69 73 77 77 78 78 77 77 77 76
83 83 81 79 77 77 80 75 73 73 72 71 71 70 69 69 67 67 67 67 66 66 65 66 65 66 68 69 69 70 71 71 71 71 68 77 76 77 78 77 77 77 76
81 84 79 79 78 79 79 77 75 74 73 73 73 72 71 69 67 67 67 67 66 66 65 64 68 68 68 68 73 70 69 70 71 71 70 77 75 76 77 77 77 77 77
83 82 76 80 80 80 80 77 76 77 75 74 74 73 72 70 68 67 67 67 66 66 65 65 65 65 65 66 68 71 69 69 71 70 69 70 74 74 75 77 77 77 77
82 82 76 78 79 79 79 75 77 77 76 76 72 73 73 70 68 68 66 65 65 65 66 65 64 64 64 66 65 67 70 68 67 68 68 67 71 74 74 74 76 77 77
80 80 78 82 77 77 77 72 75 74 75 75 71 73 72 70 70 68 66 65 66 65 64 64 63 62 62 62 62 63 64 67 67 66 67 66 67 69 73 74 75 76 77
78 77 76 75 75 73 71 71 72 73 72 72 69 68 71 72 72 68 66 66 66 64 64 63 62 62 61 61 61 62 64 64 66 68 68 70 68 67 68 72 74 74 75
78 76 75 72 73 73 73 71 71 70 70 69 68 66 69 70 71 68 66 65 65 64 62 62 61 61 61 61 63 62 63 62 62 63 68 71 66 68 68 67 69 71 73
75 73 73 71 71 74 74 72 68 67 69 69 66 71 69 70 70 67 65 65 64 63 62 62 61 60 60 60 59 58 60 61 61 61 63 64 66 70 66 67 65 65 69
73 72 71 71 73 72 75 69 69 70 68 72 68 69 70 71 70 67 65 64 63 62 62 61 60 59 59 59 57 57 53 57 59 62 61 64 68 66 67 68 67 67 66
70 69 70 70 70 70 71 71 68 68 67 66 66 66 68 70 69 67 66 64 63 62 61 60 60 59 57 58 59 57 54 53 55 58 60 62 63 66 64 66 68 66 67
68 69 70 70 70 71 70 69 68 65 63 65 66 66 67 69 69 68 66 65 63 62 61 61 61 60 58 57 58 60 59 59 53 52 57 61 62 64 63 64 63 66 66
69 68 68 69 69 69 69 68 67 66 66 66 65 65 65 65 67 68 66 64 63 62 62 61 61 60 59 57 57 57 58 58 59 55 52 56 59 60 62 62 62 64 65
69 67 69 68 67 69 68 68 67 66 65 64 63 62 62 62 64 66 67 64 63 62 62 62 62 61 60 60 59 59 57 55 55 55 54 55 55 57 61 62 62 64 63
MSLP
1008.23 1008.19 1008.47 1008.85 1009.15 1009.58 1010.08 1010.62 1011.04 1011.53 1011.85 1012.16 1012.61 1012.94 1013.19 1013.48 1013.64 1013.84 1014.04 1014.37 1014.37 1014.39 1014.60 1014.70 1014.74 1014.69 1014.75 1014.87 1014.94 1014.92 1014.86 1014.84 1014.80 1014.83 1014.80 1014.81 1014.83 1014.87 1014.95 1014.85 1014.85 1015.07 1015.47
1006.84 1008.01 1008.39 1008.78 1009.14 1009.48 1009.93 1010.54 1010.99 1011.41 1011.74 1012.05 1012.55 1012.95 1013.21 1013.46 1013.67 1013.90 1014.07 1014.32 1014.67 1014.47 1014.63 1014.77 1014.87 1014.79 1014.74 1014.76 1014.81 1014.92 1014.94 1014.84 1014.84 1014.86 1014.73 1014.67 1014.66 1014.69 1014.81 1014.88 1014.93 1015.03 1015.30
1006.86 1007.61 1008.15 1008.54 1008.99 1009.43 1009.89 1010.40 1010.83 1011.26 1011.62 1011.98 1012.43 1012.78 1013.07 1013.33 1013.67 1013.87 1014.06 1014.30 1014.56 1014.54 1014.45 1014.69 1014.77 1014.77 1014.69 1014.64 1014.75 1014.84 1014.86 1014.91 1014.89 1014.76 1014.66 1014.68 1014.60 1014.56 1014.52 1014.78 1015.00 1015.05 1015.28
1006.59 1007.51 1008.09 1008.52 1009.02 1009.44 1009.75 1010.22 1010.72 1011.13 1011.44 1011.92 1012.34 1012.65 1012.98 1013.30 1013.55 1013.78 1013.95 1014.23 1014.49 1014.48 1014.46 1014.53 1014.64 1014.68 1014.61 1014.59 1014.63 1014.73 1014.82 1014.85 1014.89 1014.72 1014.66 1014.58 1014.44 1014.23 1014.12 1014.47 1014.88 1015.03 1015.19
1007.07 1008.00 1008.55 1009.11 1009.39 1009.70 1009.95 1010.23 1010.72 1011.21 1011.51 1011.92 1012.23 1012.60 1012.98 1013.29 1013.42 1013.58 1013.89 1014.15 1014.30 1014.30 1014.32 1014.41 1014.53 1014.52 1014.44 1014.48 1014.50 1014.59 1014.61 1014.70 1014.83 1014.74 1014.64 1014.45 1014.48 1014.11 1013.52 1014.24 1014.64 1014.93 1015.27
1006.70 1007.26 1007.88 1008.62 1009.05 1009.36 1009.78 1010.21 1010.70 1011.19 1011.50 1011.80 1012.01 1012.26 1012.79 1013.11 1013.16 1013.30 1013.77 1014.03 1014.10 1014.06 1014.10 1014.15 1014.26 1014.34 1014.33 1014.32 1014.38 1014.40 1014.40 1014.48 1014.62 1014.72 1014.50 1014.29 1014.40 1014.04 1013.96 1014.32 1014.58 1014.94 1015.12
1005.86 1006.28 1007.06 1007.71 1008.29 1008.76 1009.21 1009.93 1010.44 1010.86 1011.20 1011.55 1011.74 1011.93 1012.35 1012.65 1012.90 1013.14 1013.40 1013.61 1013.77 1013.85 1013.88 1013.91 1014.01 1014.14 1014.18 1014.20 1014.18 1014.20 1014.29 1014.36 1014.39 1014.46 1014.37 1014.17 1014.06 1013.90 1013.96 1014.19 1014.40 1014.80 1015.08
1005.04 1005.76 1006.26 1006.95 1007.59 1008.01 1008.65 1009.18 1009.86 1010.32 1010.80 1011.17 1011.42 1011.52 1011.82 1012.14 1012.40 1012.78 1012.99 1013.14 1013.28 1013.44 1013.58 1013.69 1013.83 1013.93 1013.97 1014.01 1014.07 1014.05 1014.08 1014.16 1014.06 1014.17 1014.10 1014.07 1014.05 1013.82 1013.79 1014.06 1014.35 1014.62 1014.95
1004.09 1004.87 1005.75 1006.12 1006.73 1007.33 1007.98 1008.48 1009.09 1009.80 1010.25 1010.68 1011.04 1011.15 1011.35 1011.59 1011.80 1012.23 1012.45 1012.69 1012.88 1013.02 1013.23 1013.35 1013.55 1013.69 1013.74 1013.76 1013.74 1013.82 1013.90 1013.96 1013.91 1014.00 1013.84 1013.85 1013.61 1013.69 1013.69 1013.77 1014.11 1014.40 1014.75
1003.96 1004.62 1005.26 1005.97 1006.50 1006.98 1007.37 1007.85 1008.50 1009.05 1009.70 1010.27 1010.57 1010.78 1010.97 1011.20 1011.40 1011.72 1011.89 1012.23 1012.50 1012.68 1012.81 1012.97 1013.19 1013.29 1013.39 1013.45 1013.49 1013.54 1013.56 1013.65 1013.67 1013.75 1013.67 1013.78 1013.60 1013.56 1013.53 1013.90 1014.12 1014.43 1014.62
1003.39 1004.13 1004.81 1005.48 1005.92 1006.30 1006.69 1007.04 1007.74 1008.19 1009.07 1009.75 1010.12 1010.30 1010.65 1010.98 1011.12 1011.33 1011.37 1011.68 1012.02 1012.12 1012.33 1012.59 1012.85 1013.00 1012.99 1013.08 1013.19 1013.20 1013.26 1013.38 1013.43 1013.53 1013.43 1013.43 1013.43 1013.42 1013.48 1013.73 1014.00 1014.25 1014.45
1002.47 1003.62 1004.23 1004.92 1005.25 1005.88 1006.18 1006.67 1007.15 1007.60 1008.15 1009.01 1009.58 1009.92 1010.20 1010.59 1010.81 1010.81 1010.83 1011.04 1011.37 1011.48 1011.89 1012.28 1012.39 1012.59 1012.76 1012.94 1012.92 1012.85 1012.95 1012.98 1013.15 1013.22 1013.04 1013.00 1012.96 1013.19 1013.40 1013.49 1013.82 1014.11 1014.36
1002.17 1002.59 1003.60 1004.27 1004.79 1005.30 1005.71 1006.25 1006.79 1007.09 1007.43 1008.24 1009.05 1009.51 1009.88 1010.10 1010.37 1010.41 1010.63 1010.62 1011.16 1011.39 1011.79 1011.98 1012.15 1012.31 1012.48 1012.61 1012.63 1012.57 1012.33 1012.51 1012.70 1012.77 1012.63 1012.38 1012.45 1012.95 1013.30 1013.43 1013.74 1014.03 1014.14
1001.85 1001.78 1002.48 1003.28 1004.13 1004.72 1005.11 1005.55 1006.01 1006.33 1006.91 1007.58 1008.32 1008.92 1009.47 1009.88 1010.13 1010.33 1010.41 1010.60 1010.97 1011.18 1011.61 1011.86 1011.98 1012.03 1012.20 1012.18 1012.18 1012.13 1011.99 1012.16 1012.20 1012.28 1012.38 1012.01 1012.15 1012.60 1013.06 1013.39 1013.61 1013.85 1013.92
1001.53 1001.19 1001.75 1002.35 1003.09 1003.73 1004.18 1004.67 1005.17 1005.63 1006.17 1006.74 1007.49 1008.11 1008.75 1009.32 1009.69 1009.90 1010.03 1010.14 1010.59 1010.81 1011.19 1011.55 1011.72 1011.75 1011.88 1011.88 1011.64 1011.65 1011.86 1011.82 1011.86 1011.91 1011.85 1011.82 1012.07 1012.32 1012.78 1013.03 1013.27 1013.49 1013.60
1000.61 1000.66 1001.25 1001.59 1002.09 1002.93 1003.41 1003.86 1004.26 1004.86 1005.39 1006.08 1006.65 1007.27 1008.08 1008.60 1009.19 1009.64 1009.99 1010.12 1010.26 1010.37 1010.72 1011.06 1011.38 1011.41 1011.57 1011.69 1011.61 1011.41 1011.39 1011.36 1011.47 1011.70 1011.62 1011.61 1011.89 1012.19 1012.58 1012.75 1012.84 1013.08 1013.19
1000.00 1000.12 1000.53 1000.95 1001.50 1002.28 1002.67 1003.16 1003.64 1004.05 1004.72 1005.51 1006.18 1006.76 1007.53 1008.10 1008.81 1009.35 1009.69 1009.92 1010.05 1010.15 1010.33 1010.74 1011.06 1011.19 1011.42 1011.50 1011.56 1011.39 1011.21 1011.04 1011.30 1011.37 1011.56 1011.78 1011.90 1012.05 1012.38 1012.49 1012.49 1012.71 1012.88
999.08 999.34 999.59 999.94 1000.91 1001.59 1002.21 1002.71 1003.40 1003.78 1004.31 1004.95 1005.73 1006.45 1007.14 1007.73 1008.19 1008.90 1009.30 1009.58 1009.72 1010.04 1010.30 1010.74 1010.94 1011.17 1011.29 1011.43 1011.47 1011.31 1011.09 1011.01 1011.06 1011.17 1011.30 1011.55 1011.67 1011.90 1012.14 1012.25 1012.31 1012.53 1012.70
998.37 998.64 999.14 999.61 1000.27 1001.08 1001.85 1002.50 1002.96 1003.41 1003.97 1004.60 1005.44 1006.23 1006.80 1007.34 1007.84 1008.52 1008.98 1009.35 1009.42 1009.98 1010.28 1010.54 1010.76 1010.97 1011.23 1011.20 1011.29 1011.17 1010.93 1010.85 1010.83 1010.84 1011.06 1011.03 1011.31 1011.63 1011.95 1012.01 1012.11 1012.27 1012.46
997.81 998.11 998.67 999.30 1000.06 1000.84 1001.58 1002.45 1003.04 1003.50 1004.12 1004.66 1005.50 1006.42 1006.62 1006.95 1007.40 1008.18 1008.73 1009.06 1009.36 1009.79 1010.04 1010.25 1010.46 1010.59 1010.72 1010.79 1011.05 1011.03 1010.79 1010.75 1010.68 1010.75 1010.74 1010.61 1010.90 1011.18 1011.36 1011.62 1011.79 1012.09 1012.31
997.83 998.11 998.63 999.30 1000.01 1000.67 1001.52 1002.42 1003.26 1003.83 1004.35 1004.87 1005.60 1006.08 1006.37 1006.63 1007.28 1008.07 1008.37 1008.80 1009.15 1009.45 1009.73 1009.89 1010.10 1010.34 1010.46 1010.54 1011.03 1011.08 1010.91 1010.69 1010.71 1010.78 1010.84 1010.79 1010.89 1010.74 1011.08 1011.27 1011.57 1011.75 1011.91
997.87 998.11 998.72 999.17 1000.01 1000.64 1001.27 1002.15 1002.90 1003.65 1004.30 1004.65 1005.46 1006.02 1006.20 1006.72 1007.07 1007.65 1008.13 1008.52 1008.92 1009.23 1009.34 1009.50 1009.81 1010.05 1010.19 1010.36 1010.81 1011.08 1011.26 1011.21 1010.73 1010.56 1010.71 1010.76 1010.63 1010.57 1010.83 1010.95 1011.16 1011.35 1011.58
998.06 998.27 998.64 999.61 1000.20 1000.73 1001.35 1002.22 1003.13 1003.78 1004.33 1005.06 1005.64 1005.91 1006.16 1006.57 1007.05 1007.65 1008.06 1008.37 1008.61 1008.81 1009.12 1009.27 1009.34 1009.69 1010.10 1010.21 1010.31 1010.71 1011.13 1011.08 1010.94 1010.48 1010.61 1010.62 1010.60 1010.67 1010.74 1010.79 1010.81 1011.04 1011.32
998.08 998.33 998.77 999.86 1000.45 1000.95 1001.51 1002.37 1003.12 1004.03 1004.81 1005.12 1005.52 1005.80 1006.23 1006.58 1007.11 1007.51 1007.88 1008.04 1008.32 1008.61 1008.84 1008.94 1009.08 1009.38 1009.79 1010.06 1010.19 1010.13 1010.26 1010.65 1011.06 1010.85 1010.58 1010.54 1010.52 1010.56 1010.68 1010.71 1011.16 1010.99 1011.10
998.15 998.74 999.42 1000.19 1000.76 1001.26 1001.79 1002.45 1003.20 1004.00 1004.43 1004.98 1005.57 1005.98 1006.41 1006.79 1007.10 1007.41 1007.62 1007.82 1008.08 1008.24 1008.35 1008.54 1008.82 1009.05 1009.22 1009.51 1009.76 1009.98 1010.13 1010.51 1010.87 1011.01 1010.97 1010.76 1010.70 1010.79 1010.67 1010.71 1011.11 1011.00 1011.12
998.25 999.25 1000.00 1000.54 1001.12 1001.54 1002.12 1002.75 1003.39 1003.98 1004.52 1005.31 1005.75 1006.33 1006.84 1007.04 1007.18 1007.32 1007.41 1007.65 1007.88 1008.04 1008.20 1008.32 1008.46 1008.58 1008.72 1008.94 1009.24 1009.48 1009.72 1010.08 1010.55 1010.71 1010.83 1010.88 1011.09 1011.29 1011.29 1011.30 1011.33 1011.18 1011.36
Wind_Speed
7 15 21 20 20 19 19 18 17 16 16 15 14 13 12 11 10 9 9 7 6 6 4 4 3 3 2 1 0 1 2 4 5 7 8 8 8 4 2 7 12 10 12
18 16 21 20 20 20 20 18 17 16 16 15 14 13 13 11 10 9 8 7 4 4 3 2 1 2 2 1 1 1 2 2 4 6 9 9 11 8 5 3 5 12 12
18 16 18 21 20 20 20 19 17 17 16 15 14 14 13 11 10 9 8 6 5 4 3 2 1 1 1 2 2 3 3 3 4 5 7 5 6 13 8 6 6 12 12
17 14 14 21 20 20 20 19 18 17 16 16 15 14 13 11 10 9 7 6 6 5 4 4 4 4 4 4 4 4 4 4 5 5 4 6 7 12 11 10 8 9 13
14 11 10 17 17 18 18 18 18 16 16 16 15 14 12 11 10 8 7 7 7 6 6 6 6 6 6 7 6 5 5 5 6 6 5 6 4 10 6 9 7 10 13
16 16 18 19 18 19 18 18 18 16 15 15 15 15 14 13 11 10 9 8 8 7 7 8 9 8 8 7 6 5 6 6 7 5 6 7 4 4 10 9 8 8 12
17 17 19 24 21 21 20 19 18 18 16 16 16 16 15 13 11 10 10 9 8 8 9 10 10 9 9 9 8 6 6 7 5 5 6 5 5 10 12 10 8 7 11
19 18 19 27 24 23 21 21 20 19 18 17 17 16 15 13 12 11 10 10 10 10 9 8 8 8 7 8 9 7 8 9 6 4 6 4 7 13 16 13 10 8 10
18 18 16 20 24 26 23 22 21 19 19 18 17 16 16 14 13 12 12 12 10 9 9 9 10 10 10 9 9 9 9 10 6 4 7 3 11 12 11 13 11 9 9
18 16 16 14 17 18 17 23 22 21 19 18 17 16 15 15 14 13 13 11 12 11 11 11 11 11 11 12 10 12 13 13 5 5 4 3 9 11 13 11 11 9 9
12 16 16 17 17 17 16 18 22 23 20 18 17 17 13 5 7 10 11 14 14 15 13 14 12 12 12 12 13 15 15 4 5 4 5 8 14 13 14 13 12 9 10
8 18 16 15 17 15 13 15 14 14 12 11 10 10 7 7 6 8 10 17 16 16 14 14 13 13 11 4 4 13 6 5 5 5 5 11 15 15 14 14 12 11 10
7 7 16 15 15 16 13 10 8 8 8 8 10 8 7 7 5 4 3 4 4 10 4 7 6 5 5 5 5 5 9 7 5 5 7 14 17 15 13 13 13 12 10
8 4 19 18 15 16 11 10 11 10 9 8 9 11 8 5 5 5 4 5 5 4 5 4 4 5 7 8 7 6 6 6 5 4 6 12 12 14 13 13 12 13 11
9 7 14 17 17 16 14 11 11 10 10 10 10 11 8 6 5 4 4 3 4 5 5 5 5 6 8 7 5 4 5 5 7 2 4 14 13 14 15 14 14 13 13
8 8 10 18 18 16 14 13 11 10 11 10 9 10 11 7 5 4 4 4 4 5 5 3 3 3 3 3 4 5 5 4 4 6 3 6 14 14 15 16 15 15 14
7 8 11 16 16 17 16 11 10 9 11 10 7 11 11 8 6 5 4 3 4 3 4 2 2 1 2 3 5 5 4 5 4 4 3 4 6 13 13 14 14 14 15
8 9 8 11 15 14 12 6 8 8 9 9 7 8 11 8 8 5 4 3 3 4 3 2 2 3 4 4 3 5 4 5 4 5 4 5 5 5 10 15 14 14 15
10 9 9 11 15 13 8 7 6 8 6 6 6 6 10 9 7 6 4 4 3 4 3 3 3 4 3 4 4 5 5 4 5 4 6 6 7 6 5 13 16 15 14
6 6 8 8 11 11 7 6 4 5 5 5 5 5 8 7 8 6 3 4 4 4 3 3 5 4 4 4 3 4 4 3 3 4 5 4 5 6 6 7 7 8 14
3 7 10 11 11 11 9 8 4 5 4 4 3 7 7 6 6 6 4 4 4 4 4 5 4 5 4 3 2 2 3 3 4 4 4 4 5 6 6 5 5 4 6
9 8 8 10 13 8 9 4 4 5 3 4 5 5 8 8 7 6 5 4 5 3 5 4 4 2 3 4 3 1 1 3 3 4 3 4 7 4 4 6 6 7 5
8 9 10 9 9 8 9 6 5 5 4 3 1 3 4 7 7 6 4 4 3 3 3 3 3 5 3 2 5 4 2 4 1 2 5 4 5 5 3 5 7 5 6
8 8 10 9 9 9 9 7 8 5 4 3 4 3 5 7 6 6 5 5 4 2 4 3 3 3 3 4 1 3 3 2 1 2 1 3 2 5 4 3 3 4 6
9 8 8 10 9 9 8 8 6 6 4 3 4 8 5 5 6 6 6 4 4 3 3 4 3 4 4 4 3 2 3 2 2 2 2 1 3 0 1 1 3 3 3
11 9 10 9 7 8 8 8 9 8 5 6 5 5 4 3 3 2 3 3 4 3 4 4 4 5 5 4 4 4 4 4 3 3 2 2 4 2 4 4 3 1 3
Wind_Direction
149 157 157 154 149 145 145 147 145 143 140 137 137 135 131 129 125 122 117 112 112 109 106 109 115 117 114 109 33 13 345 325 329 326 331 333 329 321 198 149 140 128 126
142 159 159 157 153 152 149 151 150 149 147 144 145 145 143 140 138 135 131 130 135 129 123 123 136 147 162 178 212 247 271 307 318 316 316 318 315 298 241 169 147 137 139
141 159 161 161 159 155 153 154 154 155 152 150 153 154 151 149 149 148 147 152 167 166 154 188 245 268 240 227 241 239 250 253 283 295 300 306 287 287 238 200 168 159 152
147 155 162 164 161 160 158 158 159 162 159 159 160 158 158 159 160 158 159 173 195 196 197 212 233 248 251 239 233 246 255 261 263 277 297 278 282 288 243 190 176 163 162
130 142 157 166 163 165 164 161 163 169 166 165 163 162 165 169 169 166 178 200 213 216 223 229 240 252 260 253 243 242 247 264 272 277 275 272 283 288 176 155 163 166 171
147 158 161 171 173 171 170 168 169 172 173 171 169 167 175 182 178 177 198 217 230 234 242 246 247 247 252 259 234 249 256 253 266 275 266 271 277 180 115 148 156 178 174
162 167 163 172 177 176 173 174 174 176 179 179 178 176 183 184 184 190 205 218 231 239 248 256 270 272 276 257 241 224 238 252 259 265 274 276 243 149 131 130 133 157 174
162 170 169 173 180 179 178 177 179 180 184 186 186 182 184 185 186 197 209 222 231 242 252 259 269 267 269 259 245 230 226 242 257 268 261 269 192 159 150 140 136 138 177
169 166 170 177 180 180 181 180 179 184 187 190 191 190 188 188 189 199 208 224 232 237 233 243 247 253 256 255 245 234 221 233 234 259 276 308 202 173 146 139 141 143 169
167 163 174 174 178 181 182 181 181 185 191 192 193 195 194 193 194 204 210 217 217 220 227 237 246 248 248 247 245 234 226 232 231 245 260 250 177 160 149 152 145 151 169
152 169 165 175 181 184 184 183 183 184 189 193 196 197 195 187 199 217 215 206 212 219 216 228 235 249 247 245 244 240 237 219 217 231 247 232 192 173 166 161 155 154 169
297 170 174 176 182 179 183 185 183 182 182 188 195 195 183 189 204 219 210 206 210 213 209 223 232 239 246 220 243 244 236 219 215 231 242 229 213 180 177 165 165 166 167
248 152 177 176 182 178 185 176 181 184 177 179 188 188 189 196 209 209 195 171 191 197 201 221 233 225 211 220 228 235 222 212 220 229 255 262 209 184 186 177 176 174 167
257 213 173 178 178 183 182 181 178 180 180 180 190 190 182 197 197 199 189 186 187 179 199 208 207 207 219 234 225 221 198 215 216 213 230 221 174 176 187 187 187 187 178
234 220 170 173 178 184 186 180 176 181 175 174 185 190 186 186 187 198 221 172 180 173 188 203 212 208 213 230 233 225 201 209 224 224 214 196 175 173 183 192 199 197 188
211 209 164 176 182 182 186 179 176 175 169 176 183 184 185 175 174 185 204 197 184 180 174 182 208 166 177 210 254 253 236 234 221 195 205 176 171 181 191 200 204 202 198
199 211 169 176 181 183 188 171 174 170 166 175 174 175 172 164 167 175 178 175 192 195 179 165 210 197 206 242 252 257 252 233 206 220 181 177 185 185 199 210 208 208 206
193 199 186 177 177 182 182 158 159 156 165 170 145 160 165 155 164 178 193 205 190 177 163 174 208 230 228 229 235 251 250 248 197 206 203 185 183 189 212 213 212 218 212
204 203 182 167 172 173 152 147 144 144 136 140 133 142 155 172 166 167 187 197 172 156 170 192 219 195 216 238 233 253 254 217 221 194 212 199 181 190 196 215 213 218 218
234 206 184 159 159 154 135 119 105 115 123 115 139 172 167 160 168 179 178 202 153 160 201 211 215 220 203 213 245 264 236 211 216 210 215 224 203 204 200 187 204 213 211
164 158 169 145 151 145 150 150 138 137 133 114 133 154 159 156 166 165 165 157 168 186 215 218 211 221 237 218 120 301 298 267 252 213 233 233 243 230 190 184 182 192 201
163 140 131 132 148 143 150 123 124 133 134 128 143 178 148 151 154 145 162 174 183 207 240 251 214 192 211 180 167 136 339 322 282 230 211 222 233 245 203 178 192 189 187
141 136 121 125 130 118 126 117 96 93 60 82 128 144 157 133 122 143 167 167 202 197 225 232 191 176 197 242 193 146 138 230 205 222 223 231 233 227 213 171 206 187 190
148 124 115 119 123 126 129 123 137 135 139 171 156 135 134 136 145 162 162 178 205 184 198 211 201 192 166 208 189 223 221 124 91 347 318 225 211 185 192 209 127 175 159
115 115 114 121 115 125 126 125 125 121 135 123 124 119 125 121 135 167 180 178 177 186 204 202 206 196 189 176 175 157 222 94 151 132 213 251 20 246 202 335 137 156 171
113 107 116 115 114 114 120 124 124 109 138 113 117 118 127 125 151 170 195 177 186 190 210 218 218 205 205 196 196 197 189 155 174 161 192 192 159 9 65 42 81 220 131